[Iaude] MPEC T27: 2023 TO [a=1.99,e=0.55,i=1.2,H=26.2]
    mpec at marsden.cfa.harvard.edu 
    mpec at marsden.cfa.harvard.edu
       
    Thu Oct  5 05:17:20 EDT 2023
    
    
  
M.P.E.C. 2023-T27                               Issued 2023 October 5, 09:13 UT
     The Minor Planet Electronic Circulars contain information on unusual
         minor planets, routine data on comets and natural satellites,
         and occasional editorial announcements.  They are published
    on behalf of Division F of the International Astronomical Union by the
          Minor Planet Center, Smithsonian Astrophysical Observatory,
                          Cambridge, MA 02138, U.S.A.
			  
             Prepared using the Tamkin Foundation Computer Network
                              MPC at CFA.HARVARD.EDU
            URL https://www.minorplanetcenter.net/    ISSN 1523-6714
                                    2023 TO                                     
Observations:
     K23T00O  C2023 09 12.35455223 11 47.460-05 20 36.39         22.47GVET027F52
     K23T00O  C2023 09 12.36598723 11 46.914-05 20 33.42         22.65GVET027F52
     K23T00O  C2023 09 12.37741923 11 46.393-05 20 30.45         22.18GVET027F52
     K23T00O  C2023 09 12.38885423 11 45.828-05 20 27.89         22.50GVET027F52
     K23T00O  C2023 09 18.35960023 08 10.531-04 47 50.52         22.45GVET027F51
     K23T00O  C2023 09 18.37029323 08 09.799-04 47 45.52         23.30GVET027F51
     K23T00O  C2023 09 18.38101123 08 09.080-04 47 41.35         22.11GVET027F51
     K23T00O  C2023 09 18.39173123 08 08.341-04 47 36.26         23.00GVET027F51
     K23T00O* C2023 10 04.30493622 38 23.847+03 39 04.31         20.53wXET027F51
     K23T00O  C2023 10 04.31637522 38 18.691+03 40 25.36         20.93wXET027F51
     K23T00O  C2023 10 04.32788522 38 13.499+03 41 46.55         20.46wXET027F51
     K23T00O  C2023 10 04.43879622 37 22.836+03 55 03.16         20.00GVET027F51
     K23T00O  C2023 10 04.43943722 37 22.551+03 55 07.74         20.26GVET027F51
     K23T00O mC2023 10 05.11102722 32 58.744+05 26 20.47         19.86GVET027I52
     K23T00O mC2023 10 05.11131322 32 58.600+05 26 22.52         19.99GVET027I52
     K23T00O mC2023 10 05.11160422 32 58.456+05 26 25.51         20.43GVET027I52
     K23T00O mC2023 10 05.11190022 32 58.268+05 26 28.03         20.40GVET027I52
     K23T00O 1C2023 10 05.14504922 32 39.905+05 31 37.92         20.00GVET027G96
     K23T00O 1C2023 10 05.15073922 32 36.697+05 32 31.16         20.05GVET027G96
     K23T00O 1C2023 10 05.15643322 32 33.464+05 33 24.80         19.75GVET027G96
     K23T00O 1C2023 10 05.16212822 32 30.221+05 34 18.34         20.00GVET027G96
Observer details:
F51 Pan-STARRS 1, Haleakala.  Observers J. Bulger, K. Chambers, T. Lowe, P.
    Minguez, A. Schultz, I. Smith.  Measurers S. Chastel, J. Fairlamb, M.
    Huber, Y. Ramanjooloo, R. Wainscoat, R. Weryk, K. Chambers, T. de Boer, J.
    Bulger, H. Gao, C.-C. Lin, T. Lowe, E. Magnier, P. Minguez, A. Schultz, I.
    Smith.  1.8-m Ritchey-Chretien + CCD.
F52 Pan-STARRS 2, Haleakala.  Observers J. Bulger, K. Chambers, T. Dukes, T.
    Lowe, P. Minguez, A. Schultz, I. Smith.  Measurers S. Chastel, J.
    Fairlamb, M. Huber, Y. Ramanjooloo, R. Wainscoat, R. Weryk.  1.8-m
    Ritchey-Chretien + CCD.
G96 Mt. Lemmon Survey.  Observer G. J. Leonard.  Measurers E. C. Beshore, D.
    Fay, J. B. Fazekas, D. C. Fuls, A. R. Gibbs, A. D. Grauer, H. Groeller, J.
    K. Hogan, R. A. Kowalski, S. M. Larson, G. J. Leonard, D. Rankin, R. L.
    Seaman, F. C. Shelly, K. W. Wierzchos.  1.5-m reflector + 10K CCD.
I52 Steward Observatory, Mt. Lemmon Station.  Observer D. Rankin.  Measurers
    E. C. Beshore, D. Fay, J. B. Fazekas, D. C. Fuls, A. R. Gibbs, A. D.
    Grauer, H. Groeller, J. K. Hogan, R. A. Kowalski, S. M. Larson, G. J.
    Leonard, D. Rankin, R. L. Seaman, F. C. Shelly, K. W. Wierzchos.  1.0-m
    prime focus + CCD.
Orbital elements:
2023 TO                                                  Earth MOID = 0.0093 AU
Epoch 2023 Sept. 13.0 TT = JDT 2460200.5                Veres                   
M 338.69606              (2000.0)            P               Q                  
n   0.35233925     Peri.   71.09711     +0.48700030     -0.87339370             
a   1.9853117      Node   349.75681     +0.79315783     +0.44405660             
e   0.5487210      Incl.    1.21234     +0.36569300     +0.19999296             
P   2.80           H   26.28          G   0.15           U   8                  
Residuals in seconds of arc
230912 F52  0.1+  0.4-    230918 F51  0.1-  0.2+    231005 I52  0.0   0.3-
230912 F52  0.1-  0.1-    231004 F51  0.1+  0.1-    231005 I52  0.2+  0.0
230912 F52  0.2+  0.2+    231004 F51  0.1-  0.2+    231005 I52  0.2-  0.3-
230912 F52  0.1-  0.1+    231004 F51  0.1+  0.1-    231005 G96  0.1+  0.2+
230918 F51  0.0   0.0     231004 F51  0.3+  0.1-    231005 G96  0.1+  0.0
230918 F51  0.1-  0.3+    231004 F51  0.4+  0.2-    231005 G96  0.0   0.1+
230918 F51  0.0   0.2-    231005 I52  0.2-  0.3+    231005 G96  0.1-  0.0
Ephemeris:
2023 TO                  a,e,i = 1.99, 0.55, 1                   q = 0.8959
Date    TT    R. A. (2000) Decl.     Delta      r    Elong.  Phase     V
2023 09 05    23 14 28.3 -05 43 01   0.2374  1.2449   174.5     4.4    24.0
...
2023 09 20    23 06 54.0 -04 34 01   0.1282  1.1309   169.5     9.3    22.7
...
2023 09 28    22 57 47.7 -02 24 41   0.07641 1.0744   160.1    18.5    21.8
...
2023 10 04    22 40 05.1 +03 06 02   0.03944 1.0351   150.7    28.2    20.6
2023 10 05    22 33 41.3 +05 11 34   0.03347 1.0289   148.3    30.8    20.3
2023 10 06    22 24 34.0 +08 10 22   0.02761 1.0227   145.0    34.1    20.0
...
2023 10 12    13 15 37.9 +38 48 41   0.01474 0.9881    45.9   133.4    23.2
...
2023 10 20    11 36 58.2 +15 02 16   0.06134 0.9490    38.8   138.9    26.8
...
2023 11 04    11 31 12.8 +09 24 14   0.1560  0.9032    51.5   120.7    26.9
M. P. C. Staff               (C) Copyright 2023 MPC           M.P.E.C. 2023-T27
    
    
More information about the Iaude
mailing list